WD6AWP Weather Reports


time (UTC)temp
F
wind
direction
speed
knots
gust
knots
rain 1hr
in
rain 24hr
in
rain mn
in
humidity
%
barometer
mb
20260507083048 58 288 0.0 0.0 0.00 0.00 0.00 91 1016.9
20260507081546 58 288 0.0 0.0 0.00 0.00 0.00 91 1017.0
20260507080045 58 288 0.0 0.0 0.00 0.00 0.00 92 1017.1
20260507074556 59 288 0.0 0.0 0.00 0.00 0.00 92 1017.0
20260507073046 59 288 0.0 0.0 0.00 0.00 0.00 91 1017.0
20260507071541 59 288 0.0 0.0 0.00 0.00 0.00 91 1017.0
20260507070048 59 288 0.0 0.0 0.00 0.00 0.00 90 1017.2
20260507064538 60 288 0.0 0.0 0.00 0.00 0.00 90 1017.2
20260507063052 60 288 0.0 0.0 0.00 0.00 0.00 90 1017.3
20260507061537 60 288 0.0 0.0 0.00 0.00 0.00 89 1017.3
20260507060044 61 288 0.0 0.0 0.00 0.00 0.00 90 1017.3
20260507054542 61 288 0.0 6.1 0.00 0.00 0.00 89 1017.3
20260507053039 61 277 1.7 7.0 0.00 0.00 0.00 89 1017.3
20260507051536 61 278 2.6 7.0 0.00 0.00 0.00 89 1017.3
20260507050037 61 263 2.6 7.8 0.00 0.00 0.00 89 1017.2
20260507044534 61 272 2.6 7.8 0.00 0.00 0.00 89 1017.2
20260507043037 62 265 3.5 8.7 0.00 0.00 0.00 88 1017.1
20260507041533 62 276 1.7 7.0 0.00 0.00 0.00 87 1017.1
20260507040034 62 275 3.5 6.1 0.00 0.00 0.00 87 1016.9
20260507034537 62 277 1.7 7.0 0.00 0.00 0.00 86 1016.7
20260507033032 62 262 1.7 6.1 0.00 0.00 0.00 85 1016.6
20260507031530 62 288 2.6 8.7 0.00 0.00 0.00 85 1016.4
20260507030031 63 284 5.2 12.2 0.00 0.00 0.00 85 1016.3
20260507024530 63 267 5.2 9.6 0.00 0.00 0.00 84 1016.2
20260507023029 63 280 6.1 12.2 0.00 0.00 0.00 83 1016.0
20260507021530 64 281 7.0 13.0 0.00 0.00 0.00 82 1016.0
20260507020039 64 252 7.8 13.9 0.00 0.00 0.00 81 1015.8
20260507014528 64 269 9.6 13.9 0.00 0.00 0.00 82 1015.7
20260507013044 65 274 8.7 16.5 0.00 0.00 0.00 82 1015.7
20260507011526 66 286 7.0 15.6 0.00 0.00 0.00 82 1015.6
20260507010034 66 270 11.3 17.4 0.00 0.00 0.00 81 1015.6
20260507004525 66 277 11.3 20.0 0.00 0.00 0.00 80 1015.5
20260507003025 67 276 8.7 18.2 0.00 0.00 0.00 79 1015.6
20260507001529 68 259 9.6 17.4 0.00 0.00 0.00 78 1015.5
20260507000023 68 277 7.8 19.1 0.00 0.00 0.00 77 1015.5
20260506234529 68 265 10.4 16.5 0.00 0.00 0.00 76 1015.4
20260506233022 68 261 10.4 17.4 0.00 0.00 0.00 76 1015.5
20260506231519 69 281 12.2 16.5 0.00 0.00 0.00 74 1015.6
20260506230021 70 281 6.1 13.0 0.00 0.00 0.00 75 1015.8
20260506224517 70 304 8.7 14.8 0.00 0.00 0.00 74 1016.0
20260506223013 69 298 7.0 13.9 0.00 0.00 0.00 74 1016.2
20260506221511 70 269 8.7 14.8 0.00 0.00 0.00 72 1016.3
20260506220020 71 255 5.2 12.2 0.00 0.00 0.00 69 1016.6
20260506214509 72 257 6.1 14.8 0.00 0.00 0.00 65 1016.7
20260506213006 72 241 4.3 9.6 0.00 0.00 0.00 66 1016.8
20260506211502 72 225 5.2 12.2 0.00 0.00 0.00 63 1016.9
20260506210007 72 236 4.3 9.6 0.00 0.00 0.00 64 1017.1
20260506204601 71 234 5.2 9.6 0.00 0.00 0.00 64 1017.2
20260506203057 71 245 4.3 9.6 0.00 0.00 0.00 68 1017.3
20260506201554 70 223 5.2 10.4 0.00 0.00 0.00 71 1017.5
20260506200053 69 206 5.2 11.3 0.00 0.00 0.00 73 1017.6
20260506194554 70 219 5.2 10.4 0.00 0.00 0.00 73 1017.8
20260506193052 69 196 5.2 9.6 0.00 0.00 0.00 73 1017.9
20260506191551 70 226 5.2 8.7 0.00 0.00 0.00 72 1018.0
20260506190050 69 219 2.6 8.7 0.00 0.00 0.00 73 1018.2
20260506184549 69 165 4.3 9.6 0.00 0.00 0.00 74 1018.3
20260506183048 69 248 4.3 8.7 0.00 0.00 0.00 72 1018.5
20260506181546 69 225 4.3 8.7 0.00 0.00 0.00 73 1018.5
20260506180047 69 227 3.5 8.7 0.00 0.00 0.00 73 1018.5
20260506174547 69 164 3.5 8.7 0.00 0.00 0.00 73 1018.4
20260506173053 68 201 3.5 9.6 0.00 0.00 0.00 72 1018.4
20260506171551 68 175 3.5 10.4 0.00 0.00 0.00 73 1018.3
20260506170043 69 206 3.5 7.8 0.00 0.00 0.00 71 1018.4
20260506164553 69 209 2.6 7.0 0.00 0.00 0.00 71 1018.3
20260506163043 69 217 1.7 7.0 0.00 0.00 0.00 71 1018.2
20260506161540 69 225 1.7 7.8 0.00 0.00 0.00 71 1018.2
20260506160046 68 146 0.0 0.0 0.00 0.00 0.00 70 1018.3
20260506154543 68 137 0.0 0.0 0.00 0.00 0.00 71 1018.4
20260506153035 67 83 0.0 0.0 0.00 0.00 0.00 72 1018.4
20260506151531 66 78 0.0 3.5 0.00 0.00 0.00 73 1018.4
20260506150026 65 83 0.0 0.0 0.00 0.00 0.00 75 1018.4
20260506144527 63 84 0.0 0.0 0.00 0.00 0.00 77 1018.4
20260506143022 60 82 0.0 0.0 0.00 0.00 0.00 82 1018.3
20260506141515 56 84 0.0 0.0 0.00 0.00 0.00 90 1018.2
20260506140015 54 93 0.0 0.0 0.00 0.00 0.00 91 1018.1
20260506134513 53 117 0.0 0.0 0.00 0.00 0.00 92 1018.1
20260506133014 53 136 0.0 0.0 0.00 0.00 0.00 91 1017.9
20260506131516 53 136 0.0 0.0 0.00 0.00 0.00 91 1017.8
20260506130014 53 136 0.0 0.0 0.00 0.00 0.00 91 1017.6
20260506124506 54 136 0.0 0.0 0.00 0.00 0.00 91 1017.5
20260506123006 54 136 0.0 0.0 0.00 0.00 0.00 91 1017.4
20260506121504 54 136 0.0 0.0 0.00 0.00 0.00 90 1017.2
20260506120003 55 136 0.0 0.0 0.00 0.00 0.00 90 1017.2
20260506114503 55 136 0.0 0.0 0.00 0.00 0.00 90 1017.2
20260506113002 55 136 0.0 0.0 0.00 0.00 0.00 91 1017.1
20260506111559 55 137 0.0 0.0 0.00 0.00 0.00 91 1017.1
20260506110101 56 137 0.0 0.0 0.00 0.00 0.00 90 1017.1
20260506104557 56 137 0.0 0.0 0.00 0.00 0.00 91 1017.2
20260506103056 56 137 0.0 0.0 0.00 0.00 0.00 90 1017.2
20260506101554 57 137 0.0 0.0 0.00 0.00 0.00 90 1017.1
20260506100054 57 137 0.0 0.0 0.00 0.00 0.00 89 1017.0
20260506094550 57 233 0.0 0.0 0.00 0.03 0.00 89 1017.1
20260506093052 57 233 0.0 0.0 0.00 0.03 0.00 88 1017.2
20260506091547 58 223 0.0 0.0 0.00 0.03 0.00 88 1017.2
20260506090046 58 223 0.0 0.0 0.00 0.03 0.00 88 1017.3
20260506084545 58 219 0.0 0.0 0.00 0.03 0.00 88 1017.4